| time (UTC) | temp F | wind direction | speed MPH | gust MPH | rain 1hr in | rain 24hr in | rain mn in | humidity % | barometer mb |
| 20260508065402 | 81 | 206 | 0.0 | 0.0 | 0.00 | 0.00 | 0.00 | 17 | 1008.9 |
| 20260508064901 | 82 | 206 | 0.0 | 0.0 | 0.00 | 0.00 | 0.00 | 16 | 1008.9 |
| 20260508064401 | 82 | 206 | 0.0 | 0.0 | 0.00 | 0.00 | 0.00 | 16 | 1008.9 |
| 20260508064126 | 82 | 206 | 0.0 | 0.0 | 0.00 | 0.00 | 0.00 | 16 | 1009.0 |
| 20260508063620 | 82 | 206 | 0.0 | 0.0 | 0.00 | 0.00 | 0.00 | 16 | 1009.1 |
| 20260508062900 | 82 | 206 | 0.0 | 0.0 | 0.00 | 0.00 | 0.00 | 16 | 1009.0 |
| 20260508062402 | 82 | 206 | 0.0 | 0.0 | 0.00 | 0.00 | 0.00 | 16 | 1009.0 |
| 20260508061901 | 82 | 206 | 0.0 | 2.0 | 0.00 | 0.00 | 0.00 | 15 | 1009.0 |
| 20260508061402 | 82 | 206 | 0.0 | 2.0 | 0.00 | 0.00 | 0.00 | 15 | 1009.1 |
| 20260508060901 | 82 | 206 | 0.0 | 0.0 | 0.00 | 0.00 | 0.00 | 15 | 1009.1 |
| 20260508060402 | 82 | 206 | 0.0 | 0.0 | 0.00 | 0.00 | 0.00 | 15 | 1009.1 |
| 20260508055900 | 82 | 207 | 0.0 | 0.0 | 0.00 | 0.00 | 0.00 | 15 | 1009.1 |
| 20260508055402 | 82 | 207 | 0.0 | 0.0 | 0.00 | 0.00 | 0.00 | 14 | 1009.0 |
| 20260508054859 | 83 | 207 | 0.0 | 0.0 | 0.00 | 0.00 | 0.00 | 14 | 1009.0 |
| 20260508054353 | 83 | 207 | 0.0 | 0.0 | 0.00 | 0.00 | 0.00 | 14 | 1009.0 |
| 20260508054111 | 83 | 207 | 0.0 | 0.0 | 0.00 | 0.00 | 0.00 | 14 | 1009.0 |
| 20260508053600 | 83 | 207 | 0.0 | 0.0 | 0.00 | 0.00 | 0.00 | 14 | 1009.0 |
| 20260508053054 | 83 | 207 | 0.0 | 0.0 | 0.00 | 0.00 | 0.00 | 14 | 1009.0 |
| 20260508052336 | 84 | 207 | 0.0 | 0.0 | 0.00 | 0.00 | 0.00 | 13 | 1009.0 |
| 20260508052329 | 84 | 207 | 0.0 | 0.0 | 0.00 | 0.00 | 0.00 | 13 | 1009.0 |
| 20260508051334 | 84 | 207 | 0.0 | 0.0 | 0.00 | 0.00 | 0.00 | 13 | 1009.0 |
| 20260508051055 | 84 | 207 | 0.0 | 0.0 | 0.00 | 0.00 | 0.00 | 13 | 1008.9 |
| 20260508050334 | 84 | 207 | 0.0 | 0.0 | 0.00 | 0.00 | 0.00 | 13 | 1009.0 |
| 20260508045832 | 84 | 207 | 0.0 | 0.0 | 0.00 | 0.00 | 0.00 | 13 | 1008.9 |
| 20260508045555 | 85 | 207 | 0.0 | 0.0 | 0.00 | 0.00 | 0.00 | 13 | 1008.9 |
| 20260508044832 | 85 | 207 | 0.0 | 0.0 | 0.00 | 0.00 | 0.00 | 13 | 1008.8 |
| 20260508044330 | 85 | 207 | 0.0 | 0.0 | 0.00 | 0.00 | 0.00 | 13 | 1008.8 |
| 20260508043829 | 85 | 205 | 0.0 | 0.0 | 0.00 | 0.00 | 0.00 | 12 | 1008.8 |
| 20260508043330 | 85 | 204 | 0.0 | 0.0 | 0.00 | 0.00 | 0.00 | 12 | 1008.8 |
| 20260508042829 | 85 | 204 | 0.0 | 0.0 | 0.00 | 0.00 | 0.00 | 12 | 1008.7 |
| 20260508042329 | 85 | 204 | 0.0 | 0.0 | 0.00 | 0.00 | 0.00 | 12 | 1008.7 |
| 20260508041829 | 85 | 204 | 0.0 | 0.0 | 0.00 | 0.00 | 0.00 | 12 | 1008.7 |
| 20260508041330 | 85 | 204 | 0.0 | 0.0 | 0.00 | 0.00 | 0.00 | 12 | 1008.6 |
| 20260508041055 | 85 | 204 | 0.0 | 0.0 | 0.00 | 0.00 | 0.00 | 12 | 1008.5 |
| 20260508040330 | 86 | 204 | 0.0 | 0.0 | 0.00 | 0.00 | 0.00 | 12 | 1008.5 |
| 20260508035830 | 86 | 204 | 0.0 | 0.0 | 0.00 | 0.00 | 0.00 | 12 | 1008.5 |
| 20260508035329 | 86 | 204 | 0.0 | 0.0 | 0.00 | 0.00 | 0.00 | 12 | 1008.4 |
| 20260508034829 | 86 | 204 | 0.0 | 0.0 | 0.00 | 0.00 | 0.00 | 12 | 1008.3 |
| 20260508034329 | 86 | 204 | 0.0 | 0.0 | 0.00 | 0.00 | 0.00 | 12 | 1008.3 |
| 20260508033830 | 86 | 204 | 0.0 | 0.0 | 0.00 | 0.00 | 0.00 | 12 | 1008.2 |
| 20260508033552 | 86 | 204 | 0.0 | 1.0 | 0.00 | 0.00 | 0.00 | 12 | 1008.2 |
| 20260508033050 | 86 | 204 | 0.0 | 1.0 | 0.00 | 0.00 | 0.00 | 12 | 1008.1 |
| 20260508032329 | 86 | 204 | 0.0 | 0.0 | 0.00 | 0.00 | 0.00 | 12 | 1008.0 |
| 20260508031830 | 87 | 204 | 0.0 | 0.0 | 0.00 | 0.00 | 0.00 | 12 | 1007.8 |
| 20260508031329 | 87 | 204 | 0.0 | 0.0 | 0.00 | 0.00 | 0.00 | 12 | 1007.7 |
| 20260508030829 | 87 | 204 | 0.0 | 0.0 | 0.00 | 0.00 | 0.00 | 12 | 1007.7 |
| 20260508030329 | 87 | 220 | 0.0 | 0.0 | 0.00 | 0.00 | 0.00 | 12 | 1007.6 |
| 20260508025830 | 87 | 209 | 0.0 | 0.0 | 0.00 | 0.00 | 0.00 | 12 | 1007.5 |
| 20260508025328 | 88 | 209 | 0.0 | 0.0 | 0.00 | 0.00 | 0.00 | 11 | 1007.5 |
| 20260508024829 | 88 | 209 | 0.0 | 0.0 | 0.00 | 0.00 | 0.00 | 11 | 1007.4 |
| 20260508024329 | 88 | 209 | 0.0 | 0.0 | 0.00 | 0.00 | 0.00 | 11 | 1007.4 |
| 20260508023829 | 88 | 187 | 0.0 | 1.0 | 0.00 | 0.00 | 0.00 | 11 | 1007.3 |
| 20260508023329 | 88 | 202 | 0.0 | 1.0 | 0.00 | 0.00 | 0.00 | 11 | 1007.3 |
| 20260508022829 | 89 | 203 | 0.0 | 1.0 | 0.00 | 0.00 | 0.00 | 11 | 1007.2 |
| 20260508022330 | 89 | 208 | 0.0 | 0.0 | 0.00 | 0.00 | 0.00 | 11 | 1007.2 |
| 20260508021829 | 89 | 208 | 0.0 | 0.0 | 0.00 | 0.00 | 0.00 | 11 | 1007.2 |
| 20260508021328 | 89 | 206 | 0.0 | 3.0 | 0.00 | 0.00 | 0.00 | 11 | 1007.2 |
| 20260508020829 | 89 | 204 | 0.0 | 3.0 | 0.00 | 0.00 | 0.00 | 11 | 1007.1 |
| 20260508020328 | 90 | 203 | 0.0 | 1.0 | 0.00 | 0.00 | 0.00 | 11 | 1007.1 |
| 20260508020048 | 90 | 204 | 0.0 | 4.0 | 0.00 | 0.00 | 0.00 | 11 | 1007.0 |
| 20260508015549 | 90 | 206 | 0.0 | 4.0 | 0.00 | 0.00 | 0.00 | 11 | 1007.0 |
| 20260508014829 | 91 | 202 | 0.0 | 6.0 | 0.00 | 0.00 | 0.00 | 11 | 1006.9 |
| 20260508014329 | 91 | 225 | 0.0 | 6.0 | 0.00 | 0.00 | 0.00 | 10 | 1006.9 |
| 20260508014052 | 91 | 214 | 0.0 | 5.0 | 0.00 | 0.00 | 0.00 | 10 | 1006.9 |
| 20260508013555 | 92 | 205 | 0.0 | 5.0 | 0.00 | 0.00 | 0.00 | 10 | 1006.8 |
| 20260508012829 | 92 | 215 | 0.0 | 8.0 | 0.00 | 0.00 | 0.00 | 10 | 1006.8 |
| 20260508012814 | 92 | 222 | 0.0 | 8.0 | 0.00 | 0.00 | 0.00 | 10 | 1006.8 |
| 20260508011829 | 93 | 207 | 0.0 | 14.0 | 0.00 | 0.00 | 0.00 | 10 | 1006.8 |
| 20260508011329 | 93 | 239 | 0.0 | 14.0 | 0.00 | 0.00 | 0.00 | 10 | 1006.7 |
| 20260508010829 | 93 | 225 | 1.0 | 15.0 | 0.00 | 0.00 | 0.00 | 10 | 1006.6 |
| 20260508010330 | 93 | 227 | 1.0 | 15.0 | 0.00 | 0.00 | 0.00 | 10 | 1006.7 |
| 20260508005829 | 93 | 223 | 1.0 | 12.0 | 0.00 | 0.00 | 0.00 | 10 | 1006.7 |
| 20260508005329 | 93 | 243 | 1.0 | 12.0 | 0.00 | 0.00 | 0.00 | 9 | 1006.7 |
| 20260508005050 | 94 | 225 | 1.0 | 14.0 | 0.00 | 0.00 | 0.00 | 9 | 1006.7 |
| 20260508004330 | 94 | 222 | 0.0 | 14.0 | 0.00 | 0.00 | 0.00 | 9 | 1006.6 |
| 20260508004053 | 94 | 197 | 0.0 | 10.0 | 0.00 | 0.00 | 0.00 | 9 | 1006.6 |
| 20260508003330 | 94 | 194 | 0.0 | 10.0 | 0.00 | 0.00 | 0.00 | 9 | 1006.6 |
| 20260508002829 | 94 | 210 | 0.0 | 1.0 | 0.00 | 0.00 | 0.00 | 9 | 1006.6 |
| 20260508002329 | 95 | 208 | 0.0 | 1.0 | 0.00 | 0.00 | 0.00 | 9 | 1006.6 |
| 20260508001829 | 95 | 218 | 0.0 | 1.0 | 0.00 | 0.00 | 0.00 | 9 | 1006.6 |
| 20260508001331 | 95 | 228 | 0.0 | 7.0 | 0.00 | 0.00 | 0.00 | 9 | 1006.6 |
| 20260508000830 | 94 | 228 | 0.0 | 7.0 | 0.00 | 0.00 | 0.00 | 8 | 1006.6 |
| 20260508000329 | 94 | 218 | 0.0 | 7.0 | 0.00 | 0.00 | 0.00 | 9 | 1006.7 |
| 20260507235829 | 94 | 249 | 0.0 | 7.0 | 0.00 | 0.00 | 0.00 | 9 | 1006.7 |
| 20260507235330 | 94 | 258 | 0.0 | 3.0 | 0.00 | 0.00 | 0.00 | 9 | 1006.8 |
| 20260507234829 | 95 | 228 | 0.0 | 3.0 | 0.00 | 0.00 | 0.00 | 9 | 1006.7 |
| 20260507234329 | 95 | 234 | 0.0 | 1.0 | 0.00 | 0.00 | 0.00 | 8 | 1006.8 |
| 20260507234059 | 94 | 262 | 0.0 | 5.0 | 0.00 | 0.00 | 0.00 | 9 | 1006.7 |
| 20260507233558 | 95 | 244 | 0.0 | 5.0 | 0.00 | 0.00 | 0.00 | 8 | 1006.8 |
| 20260507232829 | 95 | 252 | 0.0 | 6.0 | 0.00 | 0.00 | 0.00 | 8 | 1006.8 |
| 20260507232549 | 95 | 261 | 0.0 | 7.0 | 0.00 | 0.00 | 0.00 | 9 | 1006.8 |
| 20260507231829 | 95 | 259 | 0.0 | 7.0 | 0.00 | 0.00 | 0.00 | 9 | 1006.8 |
| 20260507231553 | 95 | 191 | 0.0 | 6.0 | 0.00 | 0.00 | 0.00 | 8 | 1006.8 |
| 20260507230830 | 95 | 171 | 1.0 | 19.0 | 0.00 | 0.00 | 0.00 | 8 | 1006.9 |
| 20260507230330 | 95 | 233 | 2.0 | 19.0 | 0.00 | 0.00 | 0.00 | 8 | 1006.9 |
| 20260507225829 | 95 | 233 | 1.0 | 14.0 | 0.00 | 0.00 | 0.00 | 9 | 1006.9 |
| 20260507225329 | 95 | 173 | 0.0 | 3.0 | 0.00 | 0.00 | 0.00 | 8 | 1006.9 |
| 20260507224829 | 95 | 165 | 0.0 | 10.0 | 0.00 | 0.00 | 0.00 | 8 | 1007.0 |
| 20260507224329 | 95 | 175 | 0.0 | 10.0 | 0.00 | 0.00 | 0.00 | 8 | 1007.0 |
| 20260507223830 | 95 | 182 | 0.0 | 5.0 | 0.00 | 0.00 | 0.00 | 8 | 1007.0 |
| 20260507223329 | 96 | 212 | 0.0 | 5.0 | 0.00 | 0.00 | 0.00 | 8 | 1007.2 |
| 20260507223054 | 96 | 223 | 0.0 | 4.0 | 0.00 | 0.00 | 0.00 | 8 | 1007.2 |
| 20260507222329 | 96 | 240 | 0.0 | 7.0 | 0.00 | 0.00 | 0.00 | 8 | 1007.2 |
| 20260507222050 | 95 | 178 | 0.0 | 7.0 | 0.00 | 0.00 | 0.00 | 8 | 1007.2 |
| 20260507221329 | 95 | 222 | 0.0 | 11.0 | 0.00 | 0.00 | 0.00 | 8 | 1007.3 |
| 20260507220830 | 95 | 219 | 0.0 | 11.0 | 0.00 | 0.00 | 0.00 | 8 | 1007.3 |
| 20260507220330 | 95 | 234 | 0.0 | 4.0 | 0.00 | 0.00 | 0.00 | 8 | 1007.4 |
| 20260507215829 | 95 | 213 | 0.0 | 5.0 | 0.00 | 0.00 | 0.00 | 8 | 1007.5 |
| 20260507215329 | 95 | 229 | 0.0 | 7.0 | 0.00 | 0.00 | 0.00 | 8 | 1007.6 |
| 20260507214830 | 95 | 211 | 0.0 | 7.0 | 0.00 | 0.00 | 0.00 | 8 | 1007.6 |
| 20260507214329 | 95 | 219 | 0.0 | 5.0 | 0.00 | 0.00 | 0.00 | 8 | 1007.7 |
| 20260507213829 | 94 | 223 | 0.0 | 1.0 | 0.00 | 0.00 | 0.00 | 9 | 1007.7 |
| 20260507213329 | 94 | 163 | 0.0 | 8.0 | 0.00 | 0.00 | 0.00 | 9 | 1008.0 |
| 20260507212829 | 94 | 178 | 0.0 | 8.0 | 0.00 | 0.00 | 0.00 | 9 | 1008.0 |
| 20260507212329 | 94 | 173 | 0.0 | 12.0 | 0.00 | 0.00 | 0.00 | 9 | 1008.1 |
| 20260507211829 | 94 | 134 | 1.0 | 12.0 | 0.00 | 0.00 | 0.00 | 9 | 1008.2 |
| 20260507211329 | 94 | 157 | 0.0 | 9.0 | 0.00 | 0.00 | 0.00 | 9 | 1008.3 |
| 20260507210830 | 95 | 138 | 1.0 | 11.0 | 0.00 | 0.00 | 0.00 | 8 | 1008.3 |
| 20260507210329 | 95 | 248 | 1.0 | 11.0 | 0.00 | 0.00 | 0.00 | 9 | 1008.5 |
| 20260507205829 | 95 | 203 | 0.0 | 1.0 | 0.00 | 0.00 | 0.00 | 9 | 1008.5 |
| 20260507205328 | 94 | 186 | 0.0 | 7.0 | 0.00 | 0.00 | 0.00 | 9 | 1008.7 |
| 20260507204829 | 94 | 229 | 0.0 | 7.0 | 0.00 | 0.00 | 0.00 | 9 | 1008.7 |
| 20260507204329 | 94 | 211 | 0.0 | 11.0 | 0.00 | 0.00 | 0.00 | 9 | 1008.7 |
| 20260507203828 | 94 | 256 | 0.0 | 11.0 | 0.00 | 0.00 | 0.00 | 9 | 1008.8 |
| 20260507203330 | 94 | 186 | 0.0 | 7.0 | 0.00 | 0.00 | 0.00 | 9 | 1008.9 |
| 20260507202829 | 94 | 175 | 0.0 | 7.0 | 0.00 | 0.00 | 0.00 | 10 | 1008.9 |
| 20260507202328 | 93 | 202 | 0.0 | 1.0 | 0.00 | 0.00 | 0.00 | 9 | 1009.0 |
| 20260507201829 | 93 | 148 | 0.0 | 7.0 | 0.00 | 0.00 | 0.00 | 9 | 1009.1 |
| 20260507201550 | 93 | 116 | 0.0 | 7.0 | 0.00 | 0.00 | 0.00 | 9 | 1009.2 |
| 20260507200831 | 93 | 159 | 0.0 | 8.0 | 0.00 | 0.00 | 0.00 | 10 | 1009.3 |
| 20260507200329 | 93 | 146 | 0.0 | 8.0 | 0.00 | 0.00 | 0.00 | 10 | 1009.4 |
| 20260507195827 | 93 | 157 | 0.0 | 7.0 | 0.00 | 0.00 | 0.00 | 10 | 1009.4 |
| 20260507195321 | 92 | 202 | 0.0 | 3.0 | 0.00 | 0.00 | 0.00 | 10 | 1009.5 |
| 20260507194817 | 92 | 194 | 0.0 | 3.0 | 0.00 | 0.00 | 0.00 | 10 | 1009.6 |
| 20260507194318 | 92 | 262 | 0.0 | 6.0 | 0.00 | 0.00 | 0.00 | 11 | 1009.7 |
| 20260507193817 | 91 | 227 | 0.0 | 6.0 | 0.00 | 0.00 | 0.00 | 11 | 1009.8 |
| 20260507193316 | 91 | 169 | 0.0 | 4.0 | 0.00 | 0.00 | 0.00 | 11 | 1009.8 |
| 20260507192817 | 91 | 112 | 0.0 | 4.0 | 0.00 | 0.00 | 0.00 | 11 | 1009.9 |
| 20260507192316 | 91 | 155 | 0.0 | 5.0 | 0.00 | 0.00 | 0.00 | 11 | 1010.1 |
| 20260507192032 | 91 | 240 | 1.0 | 12.0 | 0.00 | 0.00 | 0.00 | 11 | 1010.1 |
| 20260507191311 | 91 | 269 | 1.0 | 12.0 | 0.00 | 0.00 | 0.00 | 11 | 1010.2 |
| 20260507190809 | 91 | 200 | 0.0 | 1.0 | 0.00 | 0.00 | 0.00 | 11 | 1010.4 |
| 20260507190307 | 90 | 163 | 0.0 | 0.0 | 0.00 | 0.00 | 0.00 | 12 | 1010.6 |
| 20260507185807 | 90 | 271 | 0.0 | 1.0 | 0.00 | 0.00 | 0.00 | 12 | 1010.6 |
| 20260507185749 | 90 | 156 | 0.0 | 1.0 | 0.00 | 0.00 | 0.00 | 12 | 1010.6 |
| 20260507185258 | 90 | 219 | 0.0 | 1.0 | 0.00 | 0.00 | 0.00 | 12 | 1010.7 |
| 20260507184523 | 89 | 175 | 0.0 | 1.0 | 0.00 | 0.00 | 0.00 | 12 | 1010.8 |
| 20260507183805 | 89 | 177 | 0.0 | 0.0 | 0.00 | 0.00 | 0.00 | 12 | 1010.9 |
| 20260507183532 | 89 | 249 | 0.0 | 0.0 | 0.00 | 0.00 | 0.00 | 12 | 1010.9 |
| 20260507182804 | 89 | 207 | 0.0 | 0.0 | 0.00 | 0.00 | 0.00 | 12 | 1010.9 |
| 20260507182306 | 88 | 225 | 0.0 | 2.0 | 0.00 | 0.00 | 0.00 | 13 | 1011.0 |
| 20260507181802 | 88 | 200 | 0.0 | 2.0 | 0.00 | 0.00 | 0.00 | 13 | 1011.1 |
| 20260507181303 | 88 | 119 | 0.0 | 0.0 | 0.00 | 0.00 | 0.00 | 14 | 1011.2 |
| 20260507180802 | 88 | 228 | 0.0 | 0.0 | 0.00 | 0.00 | 0.00 | 14 | 1011.2 |
| 20260507180301 | 87 | 193 | 0.0 | 0.0 | 0.00 | 0.00 | 0.00 | 14 | 1011.3 |
| 20260507175800 | 87 | 140 | 0.0 | 0.0 | 0.00 | 0.00 | 0.00 | 14 | 1011.4 |
| 20260507175306 | 87 | 272 | 0.0 | 0.0 | 0.00 | 0.00 | 0.00 | 14 | 1011.4 |
| 20260507174801 | 86 | 250 | 0.0 | 1.0 | 0.00 | 0.00 | 0.00 | 15 | 1011.3 |
| 20260507174301 | 87 | 229 | 0.0 | 1.0 | 0.00 | 0.00 | 0.00 | 15 | 1011.4 |
| 20260507173801 | 86 | 229 | 0.0 | 1.0 | 0.00 | 0.00 | 0.00 | 15 | 1011.4 |
| 20260507173300 | 86 | 156 | 0.0 | 1.0 | 0.00 | 0.00 | 0.00 | 16 | 1011.5 |
| 20260507172801 | 85 | 192 | 0.0 | 1.0 | 0.00 | 0.00 | 0.00 | 16 | 1011.6 |
| 20260507172306 | 85 | 213 | 0.0 | 1.0 | 0.00 | 0.00 | 0.00 | 16 | 1011.6 |
| 20260507171802 | 85 | 188 | 0.0 | 0.0 | 0.00 | 0.00 | 0.00 | 16 | 1011.6 |
| 20260507171521 | 85 | 171 | 0.0 | 0.0 | 0.00 | 0.00 | 0.00 | 16 | 1011.6 |
| 20260507171023 | 85 | 175 | 0.0 | 0.0 | 0.00 | 0.00 | 0.00 | 17 | 1011.7 |
| 20260507170302 | 84 | 198 | 0.0 | 2.0 | 0.00 | 0.00 | 0.00 | 17 | 1011.7 |
| 20260507165801 | 83 | 188 | 0.0 | 7.0 | 0.00 | 0.00 | 0.00 | 18 | 1011.8 |
| 20260507165522 | 83 | 177 | 0.0 | 7.0 | 0.00 | 0.00 | 0.00 | 19 | 1011.8 |
| 20260507164801 | 82 | 191 | 0.0 | 1.0 | 0.00 | 0.00 | 0.00 | 21 | 1011.8 |
| 20260507164302 | 82 | 202 | 0.0 | 1.0 | 0.00 | 0.00 | 0.00 | 21 | 1011.8 |
| 20260507163801 | 81 | 240 | 0.0 | 1.0 | 0.00 | 0.00 | 0.00 | 22 | 1011.9 |
| 20260507163523 | 81 | 229 | 0.0 | 1.0 | 0.00 | 0.00 | 0.00 | 22 | 1011.9 |
| 20260507163029 | 81 | 229 | 0.0 | 1.0 | 0.00 | 0.00 | 0.00 | 23 | 1011.9 |
| 20260507162301 | 81 | 232 | 0.0 | 1.0 | 0.00 | 0.00 | 0.00 | 23 | 1012.0 |
| 20260507162018 | 81 | 229 | 0.0 | 1.0 | 0.00 | 0.00 | 0.00 | 23 | 1012.0 |
| 20260507161301 | 80 | 213 | 0.0 | 0.0 | 0.00 | 0.00 | 0.00 | 24 | 1012.0 |
| 20260507160800 | 80 | 187 | 0.0 | 1.0 | 0.00 | 0.00 | 0.00 | 24 | 1012.1 |
| 20260507160301 | 79 | 207 | 0.0 | 7.0 | 0.00 | 0.00 | 0.00 | 24 | 1012.1 |
| 20260507155801 | 79 | 202 | 0.0 | 7.0 | 0.00 | 0.00 | 0.00 | 25 | 1012.0 |
| 20260507155301 | 79 | 210 | 0.0 | 1.0 | 0.00 | 0.00 | 0.00 | 25 | 1012.1 |
| 20260507155246 | 79 | 223 | 0.0 | 1.0 | 0.00 | 0.00 | 0.00 | 25 | 1012.1 |
| 20260507154259 | 79 | 214 | 0.0 | 0.0 | 0.00 | 0.00 | 0.00 | 25 | 1012.1 |
| 20260507153753 | 78 | 202 | 0.0 | 0.0 | 0.00 | 0.00 | 0.00 | 24 | 1012.1 |
| 20260507153510 | 78 | 186 | 0.0 | 0.0 | 0.00 | 0.00 | 0.00 | 26 | 1012.1 |
| 20260507153003 | 77 | 214 | 0.0 | 0.0 | 0.00 | 0.00 | 0.00 | 26 | 1012.1 |
| 20260507152244 | 76 | 208 | 0.0 | 0.0 | 0.00 | 0.00 | 0.00 | 26 | 1012.1 |
| 20260507151744 | 76 | 190 | 0.0 | 0.0 | 0.00 | 0.00 | 0.00 | 26 | 1012.2 |
| 20260507151245 | 76 | 184 | 0.0 | 0.0 | 0.00 | 0.00 | 0.00 | 26 | 1012.3 |
| 20260507150743 | 76 | 184 | 0.0 | 0.0 | 0.00 | 0.00 | 0.00 | 27 | 1012.3 |
| 20260507150241 | 75 | 184 | 0.0 | 0.0 | 0.00 | 0.00 | 0.00 | 27 | 1012.3 |
| 20260507145738 | 75 | 182 | 0.0 | 0.0 | 0.00 | 0.00 | 0.00 | 28 | 1012.3 |
| 20260507145456 | 74 | 182 | 0.0 | 0.0 | 0.00 | 0.00 | 0.00 | 28 | 1012.3 |
| 20260507144735 | 73 | 182 | 0.0 | 0.0 | 0.00 | 0.00 | 0.00 | 29 | 1012.3 |
| 20260507144232 | 73 | 183 | 0.0 | 0.0 | 0.00 | 0.00 | 0.00 | 30 | 1012.3 |
| 20260507143949 | 72 | 183 | 0.0 | 0.0 | 0.00 | 0.00 | 0.00 | 30 | 1012.3 |
| 20260507143230 | 72 | 182 | 0.0 | 0.0 | 0.00 | 0.00 | 0.00 | 30 | 1012.3 |
| 20260507142729 | 71 | 182 | 0.0 | 0.0 | 0.00 | 0.00 | 0.00 | 30 | 1012.3 |
| 20260507142230 | 71 | 182 | 0.0 | 0.0 | 0.00 | 0.00 | 0.00 | 30 | 1012.1 |
| 20260507141730 | 70 | 182 | 0.0 | 2.0 | 0.00 | 0.00 | 0.00 | 30 | 1012.1 |
| 20260507141458 | 70 | 182 | 0.0 | 2.0 | 0.00 | 0.00 | 0.00 | 31 | 1012.1 |
| 20260507140730 | 69 | 182 | 0.0 | 0.0 | 0.00 | 0.00 | 0.00 | 32 | 1012.1 |
| 20260507140230 | 69 | 182 | 0.0 | 0.0 | 0.00 | 0.00 | 0.00 | 33 | 1012.1 |
| 20260507135730 | 68 | 182 | 0.0 | 0.0 | 0.00 | 0.00 | 0.00 | 33 | 1012.0 |
| 20260507135451 | 68 | 182 | 0.0 | 0.0 | 0.00 | 0.00 | 0.00 | 33 | 1012.1 |
| 20260507134722 | 67 | 162 | 0.0 | 0.0 | 0.00 | 0.00 | 0.00 | 32 | 1012.0 |
| 20260507134442 | 67 | 132 | 0.0 | 0.0 | 0.00 | 0.00 | 0.00 | 31 | 1011.9 |
| 20260507133710 | 66 | 153 | 0.0 | 0.0 | 0.00 | 0.00 | 0.00 | 32 | 1011.9 |
| 20260507133204 | 66 | 5 | 0.0 | 0.0 | 0.00 | 0.00 | 0.00 | 31 | 1011.9 |
| 20260507132702 | 66 | 5 | 0.0 | 0.0 | 0.00 | 0.00 | 0.00 | 30 | 1011.9 |
| 20260507132202 | 66 | 5 | 0.0 | 0.0 | 0.00 | 0.00 | 0.00 | 30 | 1011.8 |
| 20260507131702 | 67 | 0 | 0.0 | 0.0 | 0.00 | 0.00 | 0.00 | 30 | 1011.8 |
| 20260507131202 | 67 | 0 | 0.0 | 0.0 | 0.00 | 0.00 | 0.00 | 30 | 1011.7 |
| 20260507130702 | 67 | 0 | 0.0 | 0.0 | 0.00 | 0.00 | 0.00 | 30 | 1011.7 |
| 20260507130421 | 68 | 16 | 0.0 | 0.0 | 0.00 | 0.00 | 0.00 | 29 | 1011.7 |
| 20260507125701 | 68 | 16 | 0.0 | 0.0 | 0.00 | 0.00 | 0.00 | 28 | 1011.7 |
| 20260507125202 | 69 | 16 | 0.0 | 0.0 | 0.00 | 0.00 | 0.00 | 28 | 1011.7 |
| 20260507124702 | 69 | 16 | 0.0 | 0.0 | 0.00 | 0.00 | 0.00 | 28 | 1011.6 |
| 20260507124427 | 69 | 16 | 0.0 | 0.0 | 0.00 | 0.00 | 0.00 | 27 | 1011.6 |
| 20260507123924 | 69 | 16 | 0.0 | 0.0 | 0.00 | 0.00 | 0.00 | 27 | 1011.6 |
| 20260507123650 | 69 | 16 | 0.0 | 0.0 | 0.00 | 0.00 | 0.00 | 28 | 1011.6 |
| 20260507122700 | 69 | 16 | 0.0 | 0.0 | 0.00 | 0.00 | 0.00 | 28 | 1011.5 |
| 20260507122201 | 69 | 16 | 0.0 | 0.0 | 0.00 | 0.00 | 0.00 | 28 | 1011.5 |
| 20260507121702 | 68 | 21 | 0.0 | 0.0 | 0.00 | 0.00 | 0.00 | 28 | 1011.5 |
| 20260507121201 | 68 | 12 | 0.0 | 0.0 | 0.00 | 0.00 | 0.00 | 29 | 1011.4 |
| 20260507120921 | 68 | 5 | 0.0 | 0.0 | 0.00 | 0.00 | 0.00 | 29 | 1011.5 |
| 20260507120158 | 68 | 0 | 0.0 | 0.0 | 0.00 | 0.00 | 0.00 | 29 | 1011.5 |
| 20260507115651 | 68 | 9 | 0.0 | 0.0 | 0.00 | 0.00 | 0.00 | 29 | 1011.5 |
| 20260507115145 | 68 | 347 | 0.0 | 0.0 | 0.00 | 0.00 | 0.00 | 29 | 1011.5 |
| 20260507114646 | 68 | 340 | 0.0 | 0.0 | 0.00 | 0.00 | 0.00 | 29 | 1011.6 |
| 20260507114145 | 68 | 338 | 0.0 | 0.0 | 0.00 | 0.00 | 0.00 | 29 | 1011.6 |
| 20260507113644 | 68 | 0 | 0.0 | 0.0 | 0.00 | 0.00 | 0.00 | 29 | 1011.6 |
| 20260507113143 | 67 | 344 | 0.0 | 0.0 | 0.00 | 0.00 | 0.00 | 29 | 1011.6 |
| 20260507112907 | 67 | 345 | 0.0 | 0.0 | 0.00 | 0.00 | 0.00 | 29 | 1011.6 |
| 20260507112629 | 67 | 355 | 0.0 | 0.0 | 0.00 | 0.00 | 0.00 | 29 | 1011.7 |
| 20260507111640 | 67 | 5 | 0.0 | 0.0 | 0.00 | 0.00 | 0.00 | 30 | 1011.7 |
| 20260507111139 | 67 | 348 | 0.0 | 0.0 | 0.00 | 0.00 | 0.00 | 30 | 1011.7 |
| 20260507110900 | 68 | 10 | 0.0 | 1.0 | 0.00 | 0.00 | 0.00 | 30 | 1011.7 |
| 20260507110358 | 68 | 0 | 0.0 | 1.0 | 0.00 | 0.00 | 0.00 | 30 | 1011.7 |
| 20260507105638 | 67 | 0 | 0.0 | 0.0 | 0.00 | 0.00 | 0.00 | 30 | 1011.8 |
| 20260507105135 | 67 | 355 | 0.0 | 0.0 | 0.00 | 0.00 | 0.00 | 30 | 1011.8 |
| 20260507104633 | 67 | 355 | 0.0 | 0.0 | 0.00 | 0.00 | 0.00 | 30 | 1011.9 |
| 20260507104135 | 67 | 355 | 0.0 | 0.0 | 0.00 | 0.00 | 0.00 | 30 | 1011.9 |
| 20260507103634 | 67 | 355 | 0.0 | 0.0 | 0.00 | 0.00 | 0.00 | 30 | 1011.9 |
| 20260507103133 | 67 | 0 | 0.0 | 0.0 | 0.00 | 0.00 | 0.00 | 30 | 1012.0 |
| 20260507102637 | 67 | 0 | 0.0 | 0.0 | 0.00 | 0.00 | 0.00 | 31 | 1012.0 |
| 20260507102131 | 67 | 0 | 0.0 | 0.0 | 0.00 | 0.00 | 0.00 | 31 | 1012.0 |
| 20260507101630 | 67 | 0 | 0.0 | 0.0 | 0.00 | 0.00 | 0.00 | 30 | 1012.1 |
| 20260507101129 | 67 | 0 | 0.0 | 0.0 | 0.00 | 0.00 | 0.00 | 30 | 1012.1 |
| 20260507100858 | 68 | 0 | 0.0 | 0.0 | 0.00 | 0.00 | 0.00 | 29 | 1012.2 |
| 20260507100130 | 68 | 0 | 0.0 | 0.0 | 0.00 | 0.00 | 0.00 | 29 | 1012.1 |
| 20260507095631 | 68 | 0 | 0.0 | 0.0 | 0.00 | 0.00 | 0.00 | 29 | 1012.2 |
| 20260507095129 | 69 | 0 | 0.0 | 0.0 | 0.00 | 0.00 | 0.00 | 28 | 1012.1 |
| 20260507094630 | 69 | 0 | 0.0 | 0.0 | 0.00 | 0.00 | 0.00 | 28 | 1012.1 |
| 20260507094130 | 69 | 0 | 0.0 | 0.0 | 0.00 | 0.00 | 0.00 | 28 | 1012.1 |
| 20260507093630 | 69 | 0 | 0.0 | 0.0 | 0.00 | 0.00 | 0.00 | 27 | 1012.2 |
| 20260507093129 | 70 | 346 | 0.0 | 0.0 | 0.00 | 0.00 | 0.00 | 27 | 1012.2 |
| 20260507092630 | 72 | 347 | 0.0 | 0.0 | 0.00 | 0.00 | 0.00 | 26 | 1012.2 |
| 20260507092355 | 72 | 348 | 0.0 | 0.0 | 0.00 | 0.00 | 0.00 | 25 | 1012.2 |
| 20260507091851 | 73 | 348 | 0.0 | 0.0 | 0.00 | 0.00 | 0.00 | 25 | 1012.2 |
| 20260507091129 | 73 | 348 | 0.0 | 0.0 | 0.00 | 0.00 | 0.00 | 24 | 1012.1 |
| 20260507090630 | 73 | 348 | 0.0 | 0.0 | 0.00 | 0.00 | 0.00 | 24 | 1012.1 |
| 20260507090129 | 73 | 348 | 0.0 | 0.0 | 0.00 | 0.00 | 0.00 | 24 | 1012.1 |
| 20260507085628 | 73 | 348 | 0.0 | 0.0 | 0.00 | 0.00 | 0.00 | 24 | 1012.2 |
| 20260507085129 | 73 | 300 | 0.0 | 0.0 | 0.00 | 0.00 | 0.00 | 24 | 1012.3 |
| 20260507084629 | 73 | 300 | 0.0 | 0.0 | 0.00 | 0.00 | 0.00 | 24 | 1012.3 |
| 20260507084129 | 73 | 300 | 0.0 | 0.0 | 0.00 | 0.00 | 0.00 | 24 | 1012.3 |
| 20260507083630 | 73 | 288 | 0.0 | 0.0 | 0.00 | 0.00 | 0.00 | 24 | 1012.3 |
| 20260507083129 | 73 | 288 | 0.0 | 0.0 | 0.00 | 0.00 | 0.00 | 24 | 1012.4 |
| 20260507082630 | 73 | 288 | 0.0 | 0.0 | 0.00 | 0.00 | 0.00 | 24 | 1012.5 |
| 20260507082130 | 73 | 288 | 0.0 | 0.0 | 0.00 | 0.00 | 0.00 | 24 | 1012.5 |
| 20260507081629 | 73 | 288 | 0.0 | 0.0 | 0.00 | 0.00 | 0.00 | 24 | 1012.5 |
| 20260507081129 | 73 | 288 | 0.0 | 0.0 | 0.00 | 0.00 | 0.00 | 24 | 1012.5 |
| 20260507080630 | 73 | 288 | 0.0 | 0.0 | 0.00 | 0.00 | 0.00 | 24 | 1012.5 |
| 20260507080130 | 73 | 238 | 0.0 | 0.0 | 0.00 | 0.00 | 0.00 | 24 | 1012.6 |
| 20260507075629 | 73 | 238 | 0.0 | 0.0 | 0.00 | 0.00 | 0.00 | 24 | 1012.6 |
| 20260507075131 | 73 | 238 | 0.0 | 0.0 | 0.00 | 0.00 | 0.00 | 23 | 1012.6 |
| 20260507074629 | 73 | 238 | 0.0 | 0.0 | 0.00 | 0.00 | 0.00 | 23 | 1012.6 |
| 20260507074127 | 74 | 238 | 0.0 | 0.0 | 0.00 | 0.00 | 0.00 | 23 | 1012.6 |
| 20260507073621 | 74 | 238 | 0.0 | 0.0 | 0.00 | 0.00 | 0.00 | 23 | 1012.6 |
| 20260507073115 | 74 | 238 | 0.0 | 0.0 | 0.00 | 0.00 | 0.00 | 23 | 1012.6 |
| 20260507072615 | 74 | 238 | 0.0 | 0.0 | 0.00 | 0.00 | 0.00 | 23 | 1012.5 |
| 20260507072113 | 74 | 238 | 0.0 | 0.0 | 0.00 | 0.00 | 0.00 | 23 | 1012.5 |
| 20260507071613 | 74 | 238 | 0.0 | 0.0 | 0.00 | 0.00 | 0.00 | 23 | 1012.5 |
| 20260507071333 | 74 | 237 | 0.0 | 0.0 | 0.00 | 0.00 | 0.00 | 23 | 1012.5 |
| 20260507070611 | 74 | 238 | 0.0 | 0.0 | 0.00 | 0.00 | 0.00 | 23 | 1012.5 |
| 20260507070337 | 74 | 237 | 0.0 | 0.0 | 0.00 | 0.00 | 0.00 | 23 | 1012.5 |
| 20260507065611 | 74 | 237 | 0.0 | 0.0 | 0.00 | 0.00 | 0.00 | 23 | 1012.5 |